Location: ??????????
(48.4699°N, 37.9573°E)
Time: 03:15:45
(UTC+00:00)

USA 267 - Pass Details

Date: 20 January 2021
Orbit: 1102 x 1106 km, 123.0° (Epoch: 22 February)

Event Time Altitude Azimuth Distance (km) Brightness Sun altitude
Exits shadow 18:04:14 37° 237° (WSW) 1,640 4.3 -38.6°
Drops below altitude 10° 18:07:55 10° 238° (WSW) 2,957 5.9 -39.2°
Sets 18:10:23 0° 238° (WSW) 3,914 6.6 -39.6°
